Speed rating — all races
Cross Country
XC speed rating
2023 XC
| Date | Meet | Event | Result | Place | Rating | Difficulty | PR/SR Flags |
|---|---|---|---|---|---|---|---|
| 2023-11-18 | Coyote Run Golf Course at Leisure World | 5000m | 18:28.1 | 162nd · 1st on team | 114.3 | +0.029 | ★CR CSR |
| 2023-11-04 | Rancho San Rafael | 5000m | 18:56 | 14th · 2nd on team | 116.1 | +0.065 | ★CR CSR |
| 2023-10-27 | Veterans Memorial Park | 5000m | 18:42.6 | 5th · 2nd on team | 115.6 | +0.046 | ★CR CSR |
| 2023-10-21 | Mt. San Antonio College | 4715m | 18:05 | 28th · 1st on team | 115.4 | +0.077 | ★PR ★CR SR CSR |
| 2023-10-17 | Clark County Fair Grounds | 5000m | 18:51.6 | 5th · 2nd on team | 113.0 | +0.041 | ★CR CSR |
| 2023-10-11 | Shadow Ridge HS Campus | 4345m | 15:44.5 | 4th · 1st on team | 129.1 | +0.161 | ★PR ★CR ★R SR CSR RSR |
| 2023-09-26 | Mesquite Sports and Event Complex | 5000m | 18:11.7 | 3rd · 1st on team | 122.0 | +0.085 | ★PR ★CR R SR CSR RSR |
| 2023-09-02 | Palo Verde HS | 5000m | 18:41 | 20th · 1st on team | 114.2 | +0.050 | PR ★CR SR CSR |
| 2023-08-26 | Kellogg Zaher Sports Complex | 4828m | 17:45 | 17th · 1st on team | 112.2 | +0.007 | ★PR ★CR SR CSR |
| 2023-08-19 | Mesquite Sports and Event Complex | 5000m | 18:49.9 | 3rd · 1st on team | 116.6 | +0.085 | PR CR R SR CSR RSR |
2021 XC
| Date | Meet | Event | Result | Place | Rating | Difficulty | PR/SR Flags |
|---|---|---|---|---|---|---|---|
| 2021-11-06 | Shadow Mountain Park | 5000m | 20:00 | 49th · 4th on team | 112.2 | +0.073 | ★CR R CSR RSR |
| 2021-10-29 | Veterans Memorial Park | 5000m | 21:30.3 | 32nd · 4th on team | 101.9 | +0.046 | |
| 2021-10-23 | Thomas Leavitt Memorial Park | 5000m | 19:28.1 | 3rd · 3rd on team | 111.0 | +0.038 | PR ★CR R SR CSR RSR |
| 2021-10-12 | Desert Breeze Park | 4023m | 16:01 | 17th · 1st on team | 108.5 | +0.072 | ★PR ★CR SR CSR |
| 2021-10-06 | Clark HS | 4828m | 18:52 | 8th · 2nd on team | 108.7 | +0.021 | PR ★CR SR CSR |
| 2021-09-29 | SLAM Academy | 4667m | 18:19.6 | 14th · 2nd on team | 108.1 | +0.020 | ★PR ★CR SR CSR |
| 2021-09-18 | Clark County Fair Grounds | 5000m | 19:44.9 | 25th · 2nd on team | 109.3 | +0.041 | PR CR R SR CSR RSR |
| 2021-09-11 | Veterans Memorial Park | 5000m | 20:35.3 | 7th · 2nd on team | 107.4 | +0.046 | CR R SR CSR RSR |
| 2021-08-28 | Floyd Lamb Park | 4828m | 19:26.9 | 37th · 2nd on team | 105.7 | +0.017 | PR ★CR SR CSR RSR |
2020 XC
| Date | Meet | Event | Result | Place | Rating | Difficulty | PR/SR Flags |
|---|---|---|---|---|---|---|---|
| 2021-04-03 | Thomas Leavitt Memorial Park | 5000m | 20:28.3 | 11th · 7th on team | 106.6 | +0.038 | PR CR R SR CSR RSR |
| 2021-03-20 | Pinecrest Cadence | 3379m | 13:06 | 17th · 6th on team | 104.6 | +0.005 | ★PR ★CR R SR CSR RSR |
| 2021-03-13 | Lone Mountain Park | 5000m | 21:15 | 7th · 6th on team | 100.9 | +0.026 | PR ★CR R SR CSR RSR |
Track & Field
TF speed rating
2024 TF
| Date | Meet | Event | Result | Place | Rating | Difficulty | PR/SR Flags |
|---|---|---|---|---|---|---|---|
| 2024-05-18 | NIAA 3A State Championship | 3200m | 10:59.22 | 7th · 1st on team | 114.3 | -0.003 | |
| 2024-05-11 | NIAA Southern 3A Region Championship | 800m | 2:16.11 | 12th · 2nd on team | 113.9 | -0.007 | ★PR SR |
| 2024-05-11 | NIAA Southern 3A Region Championship | 3200m | 10:56.55 | 4th · 1st on team | 113.8 | -0.007 | |
| 2024-05-11 | NIAA Southern 3A Region Championship | 1600m | 4:56.88 | 8th · 2nd on team | 116.4 | -0.007 | ★PR SR RSR |
| 2024-05-03 | 2024 Boulder City Small School Invite | 1600m | 4:58.38 | 2nd · 1st on team | 115.2 | -0.012 | PR SR |
| 2024-05-03 | 2024 Boulder City Small School Invite | 3200m | 10:56.15 | 2nd · 1st on team | 113.2 | -0.012 | |
| 2024-04-23 | Faith Lutheran Weekday #3 | 3200m | 11:06.71 | 1st · 1st on team | 112.9 | -0.004 | |
| 2024-04-23 | Faith Lutheran Weekday #3 | 1600m | 5:01.38 | 2nd · 1st on team | 115.4 | -0.004 | |
| 2024-04-23 | Faith Lutheran Weekday #3 | 800m | 2:20.2 | 4th · 1st on team | 111.3 | -0.004 | PR SR |
| 2024-04-18 | Virgin Valley Weekday #2 | 3200m | 11:03.6 | 1st · 1st on team | 112.6 | -0.009 | |
| 2024-04-18 | Virgin Valley Weekday #2 | 1600m | 5:01.8 | 1st · 1st on team | 114.4 | -0.009 | |
| 2024-04-11 | Cheyenne Weekday #2 | 3200m | 10:45.42 | 2nd · 1st on team | 116.1 | -0.004 | ★PR SR RSR |
| 2024-04-11 | Cheyenne Weekday #2 | 1600m | 5:00.34 | 2nd · 1st on team | 115.4 | -0.004 | PR SR |
| 2024-04-05 | 2024 Richard Lewis Invitational | 3200m | 10:48.05 | 8th · 1st on team | 115.1 | -0.012 | PR SR RSR |
| 2024-04-05 | 2024 Richard Lewis Invitational | 1600m | 5:02.62 | 12th · 1st on team | 114.4 | -0.012 | |
| 2024-04-02 | Virgin Valley Weekday | 1600m | 5:03.6 | 1st · 1st on team | 113.4 | -0.009 | |
| 2024-03-20 | Mojave Weekday #2 | 3200m | 11:07.86 | 1st · 1st on team | 112.0 | -0.007 | PR SR |
| 2024-03-20 | Mojave Weekday #2 | 1600m | 5:07.63 | 2nd · 1st on team | 112.2 | -0.007 | |
| 2024-03-08 | Ken Jensen Invitational | 3200m | 11:13.43 | 1st · 1st on team | 111.0 | -0.009 | PR SR RSR |
| 2024-03-08 | Ken Jensen Invitational | 1600m | 5:01.89 | 3rd · 1st on team | 114.5 | -0.009 | PR SR RSR |
2023 TF
| Date | Meet | Event | Result | Place | Rating | Difficulty | PR/SR Flags |
|---|---|---|---|---|---|---|---|
| 2023-05-13 | NIAA Southern 3A Regional Championship | 3200m | 11:49.29 | 7th · 2nd on team | 105.1 | -0.012 | |
| 2023-05-13 | NIAA Southern 3A Regional Championship | 1600m | 5:28.7 | 14th · 3rd on team | 104.9 | -0.012 | |
| 2023-05-05 | Boulder City Small School Invitational | 1600m | 5:45.82 | 15th · 4th on team | 99.4 | -0.012 | |
| 2023-05-05 | Boulder City Small School Invitational | 3200m | 11:45.88 | 7th · 1st on team | 104.8 | -0.012 | PR SR |
| 2023-04-27 | Mojave Weekday #2 | 1600m | 5:32.26 | 3rd · 3rd on team | 104.3 | -0.007 | |
| 2023-04-27 | Mojave Weekday #2 | 800m | 2:29 | 8th · 4th on team | 104.3 | -0.007 | SR |
| 2023-04-19 | Legacy Weekday #2 | 3200m | 11:59.63 | 3rd · 1st on team | 103.1 | -0.016 | PR SR |
| 2023-04-19 | Legacy Weekday #2 | 800m | 2:31.09 | 24th · 2nd on team | 102.0 | -0.016 | SR |
| 2023-04-11 | Moapa Valley Meet #1 | tj | 28-09.00 | — | — | -0.013 | |
| 2023-04-11 | Moapa Valley Meet #1 | 1600m | 5:38.15 | 16th · 2nd on team | 101.7 | -0.013 | |
| 2023-04-11 | Moapa Valley Meet #1 | 800m | 2:35.52 | 20th · 3rd on team | 99.2 | -0.013 | |
| 2023-04-06 | Virgin Valley Weekday #1 | 1600m | 5:26 | 11th · 3rd on team | 105.9 | -0.009 | SR RSR |
| 2023-03-31 | 2023 Richard Lewis Invitational | 800m | 2:43.75 | 25th · 2nd on team | 94.1 | -0.013 | |
| 2023-03-31 | 2023 Richard Lewis Invitational | 1600m | 5:32.33 | 15th · 2nd on team | 103.1 | -0.013 | SR RSR |
| 2023-03-22 | Coronado Weekday #2 | tj | 29-1 | — | — | -0.010 | |
| 2023-03-22 | Coronado Weekday #2 | 800m | 2:35.57 | 5th · 1st on team | 100.2 | -0.010 | |
| 2023-03-22 | Coronado Weekday #2 | 1600m | 5:40.76 | 6th · 1st on team | 101.8 | -0.010 | SR RSR |
| 2023-03-10 | Ken Jensen Invitational | 800m | 2:33.43 | 8th · 1st on team | 101.4 | -0.009 | SR RSR |
| 2023-03-07 | Silverado Weekday #1 | 800m | 2:35.91 | 12th · 2nd on team | 99.0 | -0.013 | SR RSR |
| 2023-03-07 | Silverado Weekday #1 | 1600m | 5:42.43 | 13th · 3rd on team | 100.4 | -0.013 | SR RSR |
2022 TF
| Date | Meet | Event | Result | Place | Rating | Difficulty | PR/SR Flags |
|---|---|---|---|---|---|---|---|
| 2022-04-27 | Del Sol Weekday | 800m | 2:27.36 | 6th · 1st on team | 105.1 | -0.015 | |
| 2022-04-27 | Del Sol Weekday | 1600m | 5:32.48 | 6th · 3rd on team | 103.8 | -0.015 | |
| 2022-04-20 | Valley Weekday Meet#2 | 1600m | 5:46.7 | 7th · 3rd on team | 101.5 | +0.001 | |
| 2022-04-20 | Valley Weekday Meet#2 | 800m | 2:56.3 | 9th · 5th on team | 89.5 | +0.001 | |
| 2022-04-06 | Las Vegas Weekday #1 | 800m | 2:37.05 | 13th · 1st on team | 99.6 | -0.008 | |
| 2022-04-06 | Las Vegas Weekday #1 | 1600m | 5:30.42 | 10th · 3rd on team | 105.6 | -0.008 | |
| 2022-03-31 | Virgin Valley Weekday #1 | 1600m | 5:21.71 | 5th · 3rd on team | 108.1 | -0.009 | PR SR RSR |
| 2022-03-31 | Virgin Valley Weekday #1 | 800m | 2:25.24 | 6th · 2nd on team | 107.3 | -0.009 | PR SR |
| 2022-03-25 | 2022 Richard Lewis Invitational | 1600m | 5:35.13 | 19th · 3rd on team | 103.3 | -0.013 | PR SR RSR |
| 2022-03-25 | 2022 Richard Lewis Invitational | 800m | 2:28.83 | 19th · 2nd on team | 104.3 | -0.013 | PR SR RSR |
| 2022-03-10 | Cheyenne Weekday #1 | lj | 12-07.50 | — | — | -0.004 |